This is the latest recevied weather packets stored in our database for station/object KC1TEM-13. If no packets are shown the sender has not sent any weather packets the latest 10 day(s).
| Time | Temp. | Humidity | Pressure | Rain* | Wind** | Luminosity | Snow |
|---|---|---|---|---|---|---|---|
| 1788582010 | 17.78° C | 86% | 1009.3 hPa | 0 mm | - | 0 W/m² | - |
| 1788581705 | 17.78° C | 85% | 1009.2 hPa | 0 mm | - | 0 W/m² | - |
| 1788581401 | 17.78° C | 85% | 1009.5 hPa | 0 mm | - | 0 W/m² | - |
| 1788581100 | 17.78° C | 85% | 1009.5 hPa | 0 mm | - | 0 W/m² | - |
| 1788580799 | 17.78° C | 85% | 1009.2 hPa | 0 mm | - | 0 W/m² | - |
| 1788580494 | 17.78° C | 85% | 1009.3 hPa | 0 mm | - | 0 W/m² | - |
| 1788580191 | 18.33° C | 87% | 1009.5 hPa | 0 mm | - | 0 W/m² | - |
| 1788579906 | 18.33° C | 84% | 1009.4 hPa | 0 mm | - | 0 W/m² | - |
| 1788579585 | 18.33° C | 84% | 1009.4 hPa | 0 mm | - | 0 W/m² | - |
| 1788579285 | 18.33° C | 83% | 1009.4 hPa | 0 mm | - | 0 W/m² | - |
| 1788578980 | 18.33° C | 83% | 1009.4 hPa | 0 mm | - | 0 W/m² | - |
| 1788578676 | 18.33° C | 83% | 1009.6 hPa | 0 mm | - | 0 W/m² | - |
| 1788578370 | 18.33° C | 83% | 1009.3 hPa | 0 mm | - | 0 W/m² | - |
| 1788578066 | 18.33° C | 84% | 1009.6 hPa | 0 mm | - | 0 W/m² | - |
| 1788577761 | 18.33° C | 84% | 1009.4 hPa | 0 mm | - | 0 W/m² | - |
| 1788577457 | 18.89° C | 82% | 1009.4 hPa | 0 mm | - | 0 W/m² | - |
| 1788577155 | 18.89° C | 82% | 1009.5 hPa | 0 mm | - | 0 W/m² | - |
| 1788576851 | 18.89° C | 83% | 1009.6 hPa | 0 mm | - | 0 W/m² | - |
| 1788576548 | 18.33° C | 83% | 1009.4 hPa | 0 mm | - | 0 W/m² | - |
| 1788576242 | 18.33° C | 83% | 1009.6 hPa | 0 mm | - | 0 W/m² | - |
| 1788575938 | 18.33° C | 84% | 1009.5 hPa | 0 mm | - | 0 W/m² | - |
| 1788575633 | 18.33° C | 87% | 1009.5 hPa | 0 mm | - | 0 W/m² | - |
| 1788575332 | 18.33° C | 87% | 1009.6 hPa | 0 mm | - | 0 W/m² | - |
| 1788575028 | 18.33° C | 86% | 1009.6 hPa | 0 mm | - | 0 W/m² | - |
| 1788574727 | 18.33° C | 87% | 1009.6 hPa | 0 mm | - | 0 W/m² | - |
* Rain latest hour (hover to see other rain measurements)
** Current wind speed in m/s (hover to see current wind gust speed)